Location: Alt?nova Orta
(36.9295°N, 30.7847°E)
Time: 15:39:14
(UTC+00:00)

Cosmos 1459 Rocket - Pass Details

Date: 17 February 2020
Orbit: 938 x 999 km, 83.0° (Epoch: 27 March)

Event Time Altitude Azimuth Distance (km) Brightness Sun altitude
Rises 03:30:36 0° 353° (N) 3,639 6.9 -15.3°
Reaches altitude 10° 03:33:05 10° 354° (N) 2,698 6.2 -14.8°
Maximum altitude 03:39:17 86° 84° (E) 977 4.0 -13.6°
Drops below altitude 10° 03:45:32 10° 173° (S) 2,724 6.5 -12.3°
Sets 03:48:04 0° 174° (S) 3,676 7.2 -11.8°
